Year,Month,Day,Hour,Minute,Value (Times are PST for temperature in C)
2013,07,18,00,00,17.10
2013,07,18,00,01,17.10
2013,07,18,00,02,17.00
2013,07,18,00,03,17.00
2013,07,18,00,04,16.90
2013,07,18,00,05,16.90
2013,07,18,00,06,16.90
2013,07,18,00,07,16.80
2013,07,18,00,08,16.80
2013,07,18,00,09,16.80
2013,07,18,00,10,16.80
2013,07,18,00,11,16.70
2013,07,18,00,12,16.70
2013,07,18,00,13,16.70
2013,07,18,00,14,16.70
2013,07,18,00,15,16.70
2013,07,18,00,16,16.60
2013,07,18,00,17,16.60
2013,07,18,00,18,16.60
2013,07,18,00,19,16.60
2013,07,18,00,20,16.50
2013,07,18,00,21,16.50
2013,07,18,00,22,16.50
2013,07,18,00,23,16.40
2013,07,18,00,24,16.40
2013,07,18,00,25,16.40
2013,07,18,00,26,16.40
2013,07,18,00,27,16.40
2013,07,18,00,28,16.30
2013,07,18,00,29,16.30
2013,07,18,00,30,16.20
2013,07,18,00,31,16.20
2013,07,18,00,32,16.10
2013,07,18,00,33,16.00
2013,07,18,00,34,15.90
2013,07,18,00,35,15.90
2013,07,18,00,36,15.80
2013,07,18,00,37,15.70
2013,07,18,00,38,15.70
2013,07,18,00,39,15.70
2013,07,18,00,40,15.60
2013,07,18,00,41,15.60
2013,07,18,00,42,15.60
2013,07,18,00,43,15.50
2013,07,18,00,44,15.50
2013,07,18,00,45,15.50
2013,07,18,00,46,15.50
2013,07,18,00,47,15.50
2013,07,18,00,48,15.50
2013,07,18,00,49,15.50
2013,07,18,00,50,15.50
2013,07,18,00,51,15.50
2013,07,18,00,52,15.50
2013,07,18,00,53,15.50
2013,07,18,00,54,15.50
2013,07,18,00,55,15.50
2013,07,18,00,56,15.50
2013,07,18,00,57,15.50
2013,07,18,00,58,15.50
2013,07,18,00,59,15.50
2013,07,18,01,00,15.50
2013,07,18,01,01,15.50
2013,07,18,01,02,15.50
2013,07,18,01,03,15.50
2013,07,18,01,04,15.50
2013,07,18,01,05,15.50
2013,07,18,01,06,15.60
2013,07,18,01,07,15.60
2013,07,18,01,08,15.60
2013,07,18,01,09,15.60
2013,07,18,01,10,15.60
2013,07,18,01,11,15.60
2013,07,18,01,12,15.60
2013,07,18,01,13,15.60
2013,07,18,01,14,15.60
2013,07,18,01,15,15.50
2013,07,18,01,16,15.50
2013,07,18,01,17,15.50
2013,07,18,01,18,15.50
2013,07,18,01,19,15.50
2013,07,18,01,20,15.50
2013,07,18,01,21,15.50
2013,07,18,01,22,15.40
2013,07,18,01,23,15.40
2013,07,18,01,24,15.40
2013,07,18,01,25,15.40
2013,07,18,01,26,15.40
2013,07,18,01,27,15.40
2013,07,18,01,28,15.40
2013,07,18,01,29,15.40
2013,07,18,01,30,15.40
2013,07,18,01,31,15.40
2013,07,18,01,32,15.40
2013,07,18,01,33,15.30
2013,07,18,01,34,15.30
2013,07,18,01,35,15.30
2013,07,18,01,36,15.30
2013,07,18,01,37,15.30
2013,07,18,01,38,15.30
2013,07,18,01,39,15.30
2013,07,18,01,40,15.30
2013,07,18,01,41,15.30
2013,07,18,01,42,15.30
2013,07,18,01,43,15.30
2013,07,18,01,44,15.30
2013,07,18,01,45,15.30
2013,07,18,01,46,15.30
2013,07,18,01,47,15.30
2013,07,18,01,48,15.30
2013,07,18,01,49,15.30
2013,07,18,01,50,15.30
2013,07,18,01,51,15.30
2013,07,18,01,52,15.30
2013,07,18,01,53,15.30
2013,07,18,01,54,15.30
2013,07,18,01,55,15.30
2013,07,18,01,56,15.30
2013,07,18,01,57,15.30
2013,07,18,01,58,15.30
2013,07,18,01,59,15.30
2013,07,18,02,00,15.30
2013,07,18,02,01,15.30
2013,07,18,02,02,15.30
2013,07,18,02,03,15.30
2013,07,18,02,04,15.30
2013,07,18,02,05,15.20
2013,07,18,02,06,15.20
2013,07,18,02,07,15.20
2013,07,18,02,08,15.20
2013,07,18,02,09,15.20
2013,07,18,02,10,15.20
2013,07,18,02,11,15.20
2013,07,18,02,12,15.20
2013,07,18,02,13,15.20
2013,07,18,02,14,15.20
2013,07,18,02,15,15.20
2013,07,18,02,16,15.20
2013,07,18,02,17,15.20
2013,07,18,02,18,15.20
2013,07,18,02,19,15.20
2013,07,18,02,20,15.20
2013,07,18,02,21,15.20
2013,07,18,02,22,15.20
2013,07,18,02,23,15.20
2013,07,18,02,24,15.20
2013,07,18,02,25,15.20
2013,07,18,02,26,15.20
2013,07,18,02,27,15.20
2013,07,18,02,28,15.20
2013,07,18,02,29,15.20
2013,07,18,02,30,15.10
2013,07,18,02,31,15.10
2013,07,18,02,32,15.10
2013,07,18,02,33,15.10
2013,07,18,02,34,15.10
2013,07,18,02,35,15.10
2013,07,18,02,36,15.10
2013,07,18,02,37,15.10
2013,07,18,02,38,15.10
2013,07,18,02,39,15.10
2013,07,18,02,40,15.10
2013,07,18,02,41,15.10
2013,07,18,02,42,15.10
2013,07,18,02,43,15.10
2013,07,18,02,44,15.10
2013,07,18,02,45,15.10
2013,07,18,02,46,15.10
2013,07,18,02,47,15.10
2013,07,18,02,48,15.10
2013,07,18,02,49,15.10
2013,07,18,02,50,15.10
2013,07,18,02,51,15.10
2013,07,18,02,52,15.10
2013,07,18,02,53,15.20
2013,07,18,02,54,15.20
2013,07,18,02,55,15.20
2013,07,18,02,56,15.20
2013,07,18,02,57,15.20
2013,07,18,02,58,15.20
2013,07,18,02,59,15.20
2013,07,18,03,00,15.20
2013,07,18,03,01,15.20
2013,07,18,03,02,15.20
2013,07,18,03,03,15.20
2013,07,18,03,04,15.20
2013,07,18,03,05,15.20
2013,07,18,03,06,15.20
2013,07,18,03,07,15.20
2013,07,18,03,08,15.20
2013,07,18,03,09,15.20
2013,07,18,03,10,15.20
2013,07,18,03,11,15.20
2013,07,18,03,12,15.20
2013,07,18,03,13,15.20
2013,07,18,03,14,15.20
2013,07,18,03,15,15.20
2013,07,18,03,16,15.20
2013,07,18,03,17,15.20
2013,07,18,03,18,15.20
2013,07,18,03,19,15.20
2013,07,18,03,20,15.20
2013,07,18,03,21,15.20
2013,07,18,03,22,15.20
2013,07,18,03,23,15.20
2013,07,18,03,24,15.20
2013,07,18,03,25,15.20
2013,07,18,03,26,15.10
2013,07,18,03,27,15.10
2013,07,18,03,28,15.10
2013,07,18,03,29,15.10
2013,07,18,03,30,15.10
2013,07,18,03,31,15.10
2013,07,18,03,32,15.10
2013,07,18,03,33,15.10
2013,07,18,03,34,15.10
2013,07,18,03,35,15.10
2013,07,18,03,36,15.10
2013,07,18,03,37,15.10
2013,07,18,03,38,15.10
2013,07,18,03,39,15.10
2013,07,18,03,40,15.10
2013,07,18,03,41,15.10
2013,07,18,03,42,15.10
2013,07,18,03,43,15.10
2013,07,18,03,44,15.10
2013,07,18,03,45,15.10
2013,07,18,03,46,15.10
2013,07,18,03,47,15.10
2013,07,18,03,48,15.10
2013,07,18,03,49,15.10
2013,07,18,03,50,15.10
2013,07,18,03,51,15.10
2013,07,18,03,52,15.10
2013,07,18,03,53,15.10
2013,07,18,03,54,15.10
2013,07,18,03,55,15.10
2013,07,18,03,56,15.10
2013,07,18,03,57,15.20
2013,07,18,03,58,15.20
2013,07,18,03,59,15.20
2013,07,18,04,00,15.20
2013,07,18,04,01,15.20
2013,07,18,04,02,15.20
2013,07,18,04,03,15.20
2013,07,18,04,04,15.20
2013,07,18,04,05,15.20
2013,07,18,04,06,15.20
2013,07,18,04,07,15.20
2013,07,18,04,08,15.20
2013,07,18,04,09,15.10
2013,07,18,04,10,15.10
2013,07,18,04,11,15.10
2013,07,18,04,12,15.10
2013,07,18,04,13,15.10
2013,07,18,04,14,15.10
2013,07,18,04,15,15.10
2013,07,18,04,16,15.10
2013,07,18,04,17,15.10
2013,07,18,04,18,15.10
2013,07,18,04,19,15.10
2013,07,18,04,20,15.00
2013,07,18,04,21,15.00
2013,07,18,04,22,15.00
2013,07,18,04,23,15.00
2013,07,18,04,24,14.90
2013,07,18,04,25,14.90
2013,07,18,04,26,14.90
2013,07,18,04,27,14.90
2013,07,18,04,28,14.90
2013,07,18,04,29,14.90
2013,07,18,04,30,14.90
2013,07,18,04,31,14.90
2013,07,18,04,32,14.90
2013,07,18,04,33,14.90
2013,07,18,04,34,14.90
2013,07,18,04,35,14.90
2013,07,18,04,36,14.90
2013,07,18,04,37,14.90
2013,07,18,04,38,14.90
2013,07,18,04,39,14.90
2013,07,18,04,40,14.90
2013,07,18,04,41,14.90
2013,07,18,04,42,14.90
2013,07,18,04,43,14.90
2013,07,18,04,44,14.80
2013,07,18,04,45,14.80
2013,07,18,04,46,14.80
2013,07,18,04,47,14.80
2013,07,18,04,48,14.80
2013,07,18,04,49,14.80
2013,07,18,04,50,14.80
2013,07,18,04,51,14.80
2013,07,18,04,52,14.80
2013,07,18,04,53,14.80
2013,07,18,04,54,14.80
2013,07,18,04,55,14.80
2013,07,18,04,56,14.80
2013,07,18,04,57,14.80
2013,07,18,04,58,14.80
2013,07,18,04,59,14.80
2013,07,18,05,00,14.80
2013,07,18,05,01,14.80
2013,07,18,05,02,14.80
2013,07,18,05,03,14.80
2013,07,18,05,04,14.80
2013,07,18,05,05,14.80
2013,07,18,05,06,14.80
2013,07,18,05,07,14.80
2013,07,18,05,08,14.80
2013,07,18,05,09,14.80
2013,07,18,05,10,14.80
2013,07,18,05,11,14.80
2013,07,18,05,12,14.80
2013,07,18,05,13,14.80
2013,07,18,05,14,14.80
2013,07,18,05,15,14.80
2013,07,18,05,16,14.80
2013,07,18,05,17,14.80
2013,07,18,05,18,14.80
2013,07,18,05,19,14.80
2013,07,18,05,20,14.80
2013,07,18,05,21,14.80
2013,07,18,05,22,14.80
2013,07,18,05,23,14.80
2013,07,18,05,24,14.80
2013,07,18,05,25,14.80
2013,07,18,05,26,14.80
2013,07,18,05,27,14.80
2013,07,18,05,28,14.80
2013,07,18,05,29,14.80
2013,07,18,05,30,14.70
2013,07,18,05,31,14.80
2013,07,18,05,32,14.80
2013,07,18,05,33,14.80
2013,07,18,05,34,14.80
2013,07,18,05,35,14.80
2013,07,18,05,36,14.80
2013,07,18,05,37,14.80
2013,07,18,05,38,14.80
2013,07,18,05,39,14.80
2013,07,18,05,40,14.80
2013,07,18,05,41,14.80
2013,07,18,05,42,14.80
2013,07,18,05,43,14.80
2013,07,18,05,44,14.80
2013,07,18,05,45,14.80
2013,07,18,05,46,14.80
2013,07,18,05,47,14.80
2013,07,18,05,48,14.80
2013,07,18,05,49,14.80
2013,07,18,05,50,14.90
2013,07,18,05,51,14.90
2013,07,18,05,52,14.90
2013,07,18,05,53,14.90
2013,07,18,05,54,15.00
2013,07,18,05,55,15.00
2013,07,18,05,56,15.10
2013,07,18,05,57,15.10
2013,07,18,05,58,15.10
2013,07,18,05,59,15.10
2013,07,18,06,00,15.10
2013,07,18,06,01,15.20
2013,07,18,06,02,15.20
2013,07,18,06,03,15.20
2013,07,18,06,04,15.20
2013,07,18,06,05,15.30
2013,07,18,06,06,15.30
2013,07,18,06,07,15.30
2013,07,18,06,08,15.30
2013,07,18,06,09,15.30
2013,07,18,06,10,15.30
2013,07,18,06,11,15.40
2013,07,18,06,12,15.40
2013,07,18,06,13,15.50
2013,07,18,06,14,15.50
2013,07,18,06,15,15.60
2013,07,18,06,16,15.60
2013,07,18,06,17,15.60
2013,07,18,06,18,15.70
2013,07,18,06,19,15.70
2013,07,18,06,20,15.70
2013,07,18,06,21,15.80
2013,07,18,06,22,15.80
2013,07,18,06,23,15.80
2013,07,18,06,24,15.80
2013,07,18,06,25,15.90
2013,07,18,06,26,15.90
2013,07,18,06,27,15.90
2013,07,18,06,28,16.00
2013,07,18,06,29,16.00
2013,07,18,06,30,16.00
2013,07,18,06,31,16.10
2013,07,18,06,32,16.10
2013,07,18,06,33,16.10
2013,07,18,06,34,16.20
2013,07,18,06,35,16.20
2013,07,18,06,36,16.20
2013,07,18,06,37,16.20
2013,07,18,06,38,16.30
2013,07,18,06,39,16.30
2013,07,18,06,40,16.30
2013,07,18,06,41,16.30
2013,07,18,06,42,16.40
2013,07,18,06,43,16.40
2013,07,18,06,44,16.40
2013,07,18,06,45,16.50
2013,07,18,06,46,16.50
2013,07,18,06,47,16.50
2013,07,18,06,48,16.60
2013,07,18,06,49,16.60
2013,07,18,06,50,16.60
2013,07,18,06,51,16.70
2013,07,18,06,52,16.70
2013,07,18,06,53,16.70
2013,07,18,06,54,16.80
2013,07,18,06,55,16.80
2013,07,18,06,56,16.80
2013,07,18,06,57,16.90
2013,07,18,06,58,16.90
2013,07,18,06,59,17.00
2013,07,18,07,00,17.00
2013,07,18,07,01,17.00
2013,07,18,07,02,17.10
2013,07,18,07,03,17.10
2013,07,18,07,04,17.20
2013,07,18,07,05,17.20
2013,07,18,07,06,17.20
2013,07,18,07,07,17.20
2013,07,18,07,08,17.20
2013,07,18,07,09,17.20
2013,07,18,07,10,17.30
2013,07,18,07,11,17.30
2013,07,18,07,12,17.20
2013,07,18,07,13,17.30
2013,07,18,07,14,17.20
2013,07,18,07,15,17.20
2013,07,18,07,16,17.20
2013,07,18,07,17,17.20
2013,07,18,07,18,17.20
2013,07,18,07,19,17.20
2013,07,18,07,20,17.20
2013,07,18,07,21,17.20
2013,07,18,07,22,17.20
2013,07,18,07,23,17.20
2013,07,18,07,24,17.20
2013,07,18,07,25,17.20
2013,07,18,07,26,17.20
2013,07,18,07,27,17.30
2013,07,18,07,28,17.30
2013,07,18,07,29,17.30
2013,07,18,07,30,17.30
2013,07,18,07,31,17.30
2013,07,18,07,32,17.30
2013,07,18,07,33,17.30
2013,07,18,07,34,17.30
2013,07,18,07,35,17.30
2013,07,18,07,36,17.30
2013,07,18,07,37,17.40
2013,07,18,07,38,17.40
2013,07,18,07,39,17.40
2013,07,18,07,40,17.40
2013,07,18,07,41,17.40
2013,07,18,07,42,17.40
2013,07,18,07,43,17.40
2013,07,18,07,44,17.40
2013,07,18,07,45,17.50
2013,07,18,07,46,17.50
2013,07,18,07,47,17.60
2013,07,18,07,48,17.60
2013,07,18,07,49,17.60
2013,07,18,07,50,17.70
2013,07,18,07,51,17.70
2013,07,18,07,52,17.70
2013,07,18,07,53,17.70
2013,07,18,07,54,17.80
2013,07,18,07,55,17.80
2013,07,18,07,56,17.80
2013,07,18,07,57,17.80
2013,07,18,07,58,17.80
2013,07,18,07,59,17.80
2013,07,18,08,00,17.90
2013,07,18,08,01,17.90
2013,07,18,08,02,17.90
2013,07,18,08,03,17.90
2013,07,18,08,04,17.90
2013,07,18,08,05,17.90
2013,07,18,08,06,17.90
2013,07,18,08,07,17.90
2013,07,18,08,08,17.90
2013,07,18,08,09,17.90
2013,07,18,08,10,17.90
2013,07,18,08,11,17.90
2013,07,18,08,12,17.90
2013,07,18,08,13,17.90
2013,07,18,08,14,17.90
2013,07,18,08,15,17.90
2013,07,18,08,16,17.90
2013,07,18,08,17,17.90
2013,07,18,08,18,18.00
2013,07,18,08,19,18.00
2013,07,18,08,20,18.00
2013,07,18,08,21,18.00
2013,07,18,08,22,18.00
2013,07,18,08,23,18.00
2013,07,18,08,24,18.10
2013,07,18,08,25,18.10
2013,07,18,08,26,18.10
2013,07,18,08,27,18.10
2013,07,18,08,28,18.10
2013,07,18,08,29,18.10
2013,07,18,08,30,18.10
2013,07,18,08,31,18.10
2013,07,18,08,32,18.10
2013,07,18,08,33,18.10
2013,07,18,08,34,18.10
2013,07,18,08,35,18.20
2013,07,18,08,36,18.20
2013,07,18,08,37,18.20
2013,07,18,08,38,18.20
2013,07,18,08,39,18.20
2013,07,18,08,40,18.20
2013,07,18,08,41,18.20
2013,07,18,08,42,18.20
2013,07,18,08,43,18.20
2013,07,18,08,44,18.30
2013,07,18,08,45,18.30
2013,07,18,08,46,18.30
2013,07,18,08,47,18.30
2013,07,18,08,48,18.20
2013,07,18,08,49,18.20
2013,07,18,08,50,18.20
2013,07,18,08,51,18.20
2013,07,18,08,52,18.20
2013,07,18,08,53,18.20
2013,07,18,08,54,18.20
2013,07,18,08,55,18.20
2013,07,18,08,56,18.20
2013,07,18,08,57,18.20
2013,07,18,08,58,18.20
2013,07,18,08,59,18.20
2013,07,18,09,00,18.20
2013,07,18,09,01,18.30
2013,07,18,09,02,18.30
2013,07,18,09,03,18.30
2013,07,18,09,04,18.30
2013,07,18,09,05,18.30
2013,07,18,09,06,18.30
2013,07,18,09,07,18.30
2013,07,18,09,08,18.30
2013,07,18,09,09,18.30
2013,07,18,09,10,18.30
2013,07,18,09,11,18.40
2013,07,18,09,12,18.40
2013,07,18,09,13,18.50
2013,07,18,09,14,18.50
2013,07,18,09,15,18.50
2013,07,18,09,16,18.60
2013,07,18,09,17,18.60
2013,07,18,09,18,18.70
2013,07,18,09,19,18.80
2013,07,18,09,20,19.00
2013,07,18,09,21,19.00
2013,07,18,09,22,19.10
2013,07,18,09,23,19.20
2013,07,18,09,24,19.20
2013,07,18,09,25,19.10
2013,07,18,09,26,19.10
2013,07,18,09,27,19.00
2013,07,18,09,28,19.00
2013,07,18,09,29,19.00
2013,07,18,09,30,19.00
2013,07,18,09,31,18.90
2013,07,18,09,32,18.90
2013,07,18,09,33,18.90
2013,07,18,09,34,18.90
2013,07,18,09,35,19.00
2013,07,18,09,36,19.00
2013,07,18,09,37,19.10
2013,07,18,09,38,19.20
2013,07,18,09,39,19.30
2013,07,18,09,40,19.40
2013,07,18,09,41,19.40
2013,07,18,09,42,19.40
2013,07,18,09,43,19.50
2013,07,18,09,44,19.50
2013,07,18,09,45,19.50
2013,07,18,09,46,19.40
2013,07,18,09,47,19.40
2013,07,18,09,48,19.40
2013,07,18,09,49,19.40
2013,07,18,09,50,19.40
2013,07,18,09,51,19.50
2013,07,18,09,52,19.50
2013,07,18,09,53,19.60
2013,07,18,09,54,19.80
2013,07,18,09,55,19.90
2013,07,18,09,56,20.00
2013,07,18,09,57,20.10
2013,07,18,09,58,20.10
2013,07,18,09,59,20.20
2013,07,18,10,00,20.20
2013,07,18,10,01,20.10
2013,07,18,10,02,20.10
2013,07,18,10,03,20.00
2013,07,18,10,04,20.00
2013,07,18,10,05,20.00
2013,07,18,10,06,20.00
2013,07,18,10,07,20.10
2013,07,18,10,08,20.20
2013,07,18,10,09,20.20
2013,07,18,10,10,20.20
2013,07,18,10,11,20.20
2013,07,18,10,12,20.20
2013,07,18,10,13,20.20
2013,07,18,10,14,20.20
2013,07,18,10,15,20.20
2013,07,18,10,16,20.10
2013,07,18,10,17,20.10
2013,07,18,10,18,20.10
2013,07,18,10,19,20.10
2013,07,18,10,20,20.10
2013,07,18,10,21,20.10
2013,07,18,10,22,20.10
2013,07,18,10,23,20.10
2013,07,18,10,24,20.10
2013,07,18,10,25,20.10
2013,07,18,10,26,20.10
2013,07,18,10,27,20.20
2013,07,18,10,28,20.20
2013,07,18,10,29,20.20
2013,07,18,10,30,20.20
2013,07,18,10,31,20.30
2013,07,18,10,32,20.30
2013,07,18,10,33,20.30
2013,07,18,10,34,20.30
2013,07,18,10,35,20.30
2013,07,18,10,36,20.30
2013,07,18,10,37,20.30
2013,07,18,10,38,20.40
2013,07,18,10,39,20.40
2013,07,18,10,40,20.50
2013,07,18,10,41,20.50
2013,07,18,10,42,20.60
2013,07,18,10,43,20.70
2013,07,18,10,44,20.70
2013,07,18,10,45,20.70
2013,07,18,10,46,20.70
2013,07,18,10,47,20.60
2013,07,18,10,48,20.60
2013,07,18,10,49,20.50
2013,07,18,10,50,20.50
2013,07,18,10,51,20.50
2013,07,18,10,52,20.60
2013,07,18,10,53,20.70
2013,07,18,10,54,20.80
2013,07,18,10,55,20.80
2013,07,18,10,56,20.90
2013,07,18,10,57,20.90
2013,07,18,10,58,21.00
2013,07,18,10,59,21.10
2013,07,18,11,00,21.10
2013,07,18,11,01,21.10
2013,07,18,11,02,21.20
2013,07,18,11,03,21.20
2013,07,18,11,04,21.10
2013,07,18,11,05,21.10
2013,07,18,11,06,21.00
2013,07,18,11,07,21.00
2013,07,18,11,08,20.90
2013,07,18,11,09,20.80
2013,07,18,11,10,20.80
2013,07,18,11,11,20.80
2013,07,18,11,12,20.80
2013,07,18,11,13,20.80
2013,07,18,11,14,20.90
2013,07,18,11,15,20.90
2013,07,18,11,16,20.90
2013,07,18,11,17,20.90
2013,07,18,11,18,20.80
2013,07,18,11,19,20.80
2013,07,18,11,20,20.70
2013,07,18,11,21,20.70
2013,07,18,11,22,20.80
2013,07,18,11,23,20.80
2013,07,18,11,24,20.90
2013,07,18,11,25,20.90
2013,07,18,11,26,20.90
2013,07,18,11,27,20.90
2013,07,18,11,28,20.90
2013,07,18,11,29,20.90
2013,07,18,11,30,20.90
2013,07,18,11,31,20.90
2013,07,18,11,32,20.90
2013,07,18,11,33,20.90
2013,07,18,11,34,20.90
2013,07,18,11,35,20.80
2013,07,18,11,36,20.80
2013,07,18,11,37,20.80
2013,07,18,11,38,20.80
2013,07,18,11,39,20.90
2013,07,18,11,40,20.90
2013,07,18,11,41,20.90
2013,07,18,11,42,20.90
2013,07,18,11,43,20.90
2013,07,18,11,44,20.90
2013,07,18,11,45,21.00
2013,07,18,11,46,21.00
2013,07,18,11,47,21.00
2013,07,18,11,48,20.90
2013,07,18,11,49,20.90
2013,07,18,11,50,20.90
2013,07,18,11,51,20.90
2013,07,18,11,52,21.00
2013,07,18,11,53,21.00
2013,07,18,11,54,21.00
2013,07,18,11,55,21.00
2013,07,18,11,56,21.10
2013,07,18,11,57,21.10
2013,07,18,11,58,21.10
2013,07,18,11,59,21.10
2013,07,18,12,00,21.10
2013,07,18,12,01,21.10
2013,07,18,12,02,21.10
2013,07,18,12,03,21.10
2013,07,18,12,04,21.10
2013,07,18,12,05,21.10
2013,07,18,12,06,21.10
2013,07,18,12,07,21.20
2013,07,18,12,08,21.20
2013,07,18,12,09,21.10
2013,07,18,12,10,21.10
2013,07,18,12,11,21.10
2013,07,18,12,12,21.10
2013,07,18,12,13,21.00
2013,07,18,12,14,20.90
2013,07,18,12,15,20.90
2013,07,18,12,16,20.90
2013,07,18,12,17,20.90
2013,07,18,12,18,20.90
2013,07,18,12,19,21.00
2013,07,18,12,20,21.10
2013,07,18,12,21,21.10
2013,07,18,12,22,21.20
2013,07,18,12,23,21.30
2013,07,18,12,24,21.40
2013,07,18,12,25,21.40
2013,07,18,12,26,21.50
2013,07,18,12,27,21.60
2013,07,18,12,28,21.70
2013,07,18,12,29,21.80
2013,07,18,12,30,21.80
2013,07,18,12,31,21.80
2013,07,18,12,32,21.80
2013,07,18,12,33,21.80
2013,07,18,12,34,21.80
2013,07,18,12,35,21.80
2013,07,18,12,36,21.80
2013,07,18,12,37,21.90
2013,07,18,12,38,21.90
2013,07,18,12,39,21.80
2013,07,18,12,40,21.90
2013,07,18,12,41,21.90
2013,07,18,12,42,21.90
2013,07,18,12,43,21.90
2013,07,18,12,44,21.90
2013,07,18,12,45,21.90
2013,07,18,12,46,22.00
2013,07,18,12,47,22.10
2013,07,18,12,48,22.10
2013,07,18,12,49,22.00
2013,07,18,12,50,22.00
2013,07,18,12,51,21.90
2013,07,18,12,52,21.90
2013,07,18,12,53,21.90
2013,07,18,12,54,22.00
2013,07,18,12,55,21.90
2013,07,18,12,56,21.90
2013,07,18,12,57,21.90
2013,07,18,12,58,21.90
2013,07,18,12,59,21.90
2013,07,18,13,00,21.90
2013,07,18,13,01,22.00
2013,07,18,13,02,22.10
2013,07,18,13,03,22.30
2013,07,18,13,04,22.40
2013,07,18,13,05,22.50
2013,07,18,13,06,22.50
2013,07,18,13,07,22.50
2013,07,18,13,08,22.50
2013,07,18,13,09,22.50
2013,07,18,13,10,22.40
2013,07,18,13,11,22.40
2013,07,18,13,12,22.40
2013,07,18,13,13,22.40
2013,07,18,13,14,22.40
2013,07,18,13,15,22.50
2013,07,18,13,16,22.60
2013,07,18,13,17,22.70
2013,07,18,13,18,22.70
2013,07,18,13,19,22.80
2013,07,18,13,20,22.70
2013,07,18,13,21,22.70
2013,07,18,13,22,22.70
2013,07,18,13,23,22.70
2013,07,18,13,24,22.70
2013,07,18,13,25,22.70
2013,07,18,13,26,22.80
2013,07,18,13,27,22.80
2013,07,18,13,28,22.80
2013,07,18,13,29,22.90
2013,07,18,13,30,22.90
2013,07,18,13,31,22.90
2013,07,18,13,32,22.90
2013,07,18,13,33,22.90
2013,07,18,13,34,22.80
2013,07,18,13,35,22.80
2013,07,18,13,36,22.70
2013,07,18,13,37,22.70
2013,07,18,13,38,22.60
2013,07,18,13,39,22.60
2013,07,18,13,40,22.60
2013,07,18,13,41,22.50
2013,07,18,13,42,22.50
2013,07,18,13,43,22.60
2013,07,18,13,44,22.60
2013,07,18,13,45,22.70
2013,07,18,13,46,22.80
2013,07,18,13,47,22.90
2013,07,18,13,48,23.00
2013,07,18,13,49,23.00
2013,07,18,13,50,23.10
2013,07,18,13,51,23.20
2013,07,18,13,52,23.20
2013,07,18,13,53,23.20
2013,07,18,13,54,23.20
2013,07,18,13,55,23.20
2013,07,18,13,56,23.20
2013,07,18,13,57,23.30
2013,07,18,13,58,23.40
2013,07,18,13,59,23.40
2013,07,18,14,00,23.40
2013,07,18,14,01,23.50
2013,07,18,14,02,23.60
2013,07,18,14,03,23.60
2013,07,18,14,04,23.60
2013,07,18,14,05,23.60
2013,07,18,14,06,23.60
2013,07,18,14,07,23.50
2013,07,18,14,08,23.50
2013,07,18,14,09,23.50
2013,07,18,14,10,23.50
2013,07,18,14,11,23.50
2013,07,18,14,12,23.60
2013,07,18,14,13,23.60
2013,07,18,14,14,23.70
2013,07,18,14,15,23.70
2013,07,18,14,16,23.60
2013,07,18,14,17,23.50
2013,07,18,14,18,23.40
2013,07,18,14,19,23.40
2013,07,18,14,20,23.40
2013,07,18,14,21,23.40
2013,07,18,14,22,23.40
2013,07,18,14,23,23.30
2013,07,18,14,24,23.30
2013,07,18,14,25,23.30
2013,07,18,14,26,23.30
2013,07,18,14,27,23.30
2013,07,18,14,28,23.40
2013,07,18,14,29,23.40
2013,07,18,14,30,23.40
2013,07,18,14,31,23.30
2013,07,18,14,32,23.30
2013,07,18,14,33,23.30
2013,07,18,14,34,23.20
2013,07,18,14,35,23.20
2013,07,18,14,36,23.30
2013,07,18,14,37,23.30
2013,07,18,14,38,23.30
2013,07,18,14,39,23.40
2013,07,18,14,40,23.50
2013,07,18,14,41,23.60
2013,07,18,14,42,23.70
2013,07,18,14,43,23.80
2013,07,18,14,44,23.90
2013,07,18,14,45,23.90
2013,07,18,14,46,23.90
2013,07,18,14,47,23.90
2013,07,18,14,48,23.90
2013,07,18,14,49,23.90
2013,07,18,14,50,23.90
2013,07,18,14,51,24.00
2013,07,18,14,52,23.90
2013,07,18,14,53,23.80
2013,07,18,14,54,23.80
2013,07,18,14,55,23.80
2013,07,18,14,56,23.80
2013,07,18,14,57,23.80
2013,07,18,14,58,23.80
2013,07,18,14,59,23.90
2013,07,18,15,00,24.00
2013,07,18,15,01,24.00
2013,07,18,15,02,24.00
2013,07,18,15,03,23.90
2013,07,18,15,04,23.90
2013,07,18,15,05,23.90
2013,07,18,15,06,24.00
2013,07,18,15,07,24.00
2013,07,18,15,08,24.10
2013,07,18,15,09,24.10
2013,07,18,15,10,24.20
2013,07,18,15,11,24.20
2013,07,18,15,12,24.20
2013,07,18,15,13,24.20
2013,07,18,15,14,24.20
2013,07,18,15,15,24.20
2013,07,18,15,16,24.20
2013,07,18,15,17,24.20
2013,07,18,15,18,24.30
2013,07,18,15,19,24.30
2013,07,18,15,20,24.40
2013,07,18,15,21,24.40
2013,07,18,15,22,24.40
2013,07,18,15,23,24.40
2013,07,18,15,24,24.40
2013,07,18,15,25,24.40
2013,07,18,15,26,24.30
2013,07,18,15,27,24.30
2013,07,18,15,28,24.30
2013,07,18,15,29,24.30
2013,07,18,15,30,24.40
2013,07,18,15,31,24.40
2013,07,18,15,32,24.50
2013,07,18,15,33,24.50
2013,07,18,15,34,24.50
2013,07,18,15,35,24.50
2013,07,18,15,36,24.40
2013,07,18,15,37,24.50
2013,07,18,15,38,24.50
2013,07,18,15,39,24.60
2013,07,18,15,40,24.60
2013,07,18,15,41,24.60
2013,07,18,15,42,24.50
2013,07,18,15,43,24.50
2013,07,18,15,44,24.50
2013,07,18,15,45,24.40
2013,07,18,15,46,24.40
2013,07,18,15,47,24.40
2013,07,18,15,48,24.50
2013,07,18,15,49,24.50
2013,07,18,15,50,24.60
2013,07,18,15,51,24.60
2013,07,18,15,52,24.60
2013,07,18,15,53,24.60
2013,07,18,15,54,24.50
2013,07,18,15,55,24.40
2013,07,18,15,56,24.30
2013,07,18,15,57,24.30
2013,07,18,15,58,24.30
2013,07,18,15,59,24.30
2013,07,18,16,00,24.30
2013,07,18,16,01,24.30
2013,07,18,16,02,24.30
2013,07,18,16,03,24.20
2013,07,18,16,04,24.20
2013,07,18,16,05,24.30
2013,07,18,16,06,24.30
2013,07,18,16,07,24.30
2013,07,18,16,08,24.30
2013,07,18,16,09,24.40
2013,07,18,16,10,24.40
2013,07,18,16,11,24.50
2013,07,18,16,12,24.60
2013,07,18,16,13,24.70
2013,07,18,16,14,24.80
2013,07,18,16,15,24.80
2013,07,18,16,16,24.80
2013,07,18,16,17,24.80
2013,07,18,16,18,24.80
2013,07,18,16,19,24.80
2013,07,18,16,20,24.80
2013,07,18,16,21,24.80
2013,07,18,16,22,24.90
2013,07,18,16,23,24.90
2013,07,18,16,24,24.90
2013,07,18,16,25,24.80
2013,07,18,16,26,24.70
2013,07,18,16,27,24.70
2013,07,18,16,28,24.70
2013,07,18,16,29,24.70
2013,07,18,16,30,24.70
2013,07,18,16,31,24.70
2013,07,18,16,32,24.70
2013,07,18,16,33,24.80
2013,07,18,16,34,24.80
2013,07,18,16,35,24.80
2013,07,18,16,36,24.80
2013,07,18,16,37,24.70
2013,07,18,16,38,24.60
2013,07,18,16,39,24.60
2013,07,18,16,40,24.50
2013,07,18,16,41,24.50
2013,07,18,16,42,24.50
2013,07,18,16,43,24.50
2013,07,18,16,44,24.60
2013,07,18,16,45,24.60
2013,07,18,16,46,24.70
2013,07,18,16,47,24.70
2013,07,18,16,48,24.80
2013,07,18,16,49,24.80
2013,07,18,16,50,24.70
2013,07,18,16,51,24.70
2013,07,18,16,52,24.80
2013,07,18,16,53,24.80
2013,07,18,16,54,24.80
2013,07,18,16,55,24.80
2013,07,18,16,56,24.80
2013,07,18,16,57,24.80
2013,07,18,16,58,24.80
2013,07,18,16,59,24.80
2013,07,18,17,00,24.80
2013,07,18,17,01,24.90
2013,07,18,17,02,24.90
2013,07,18,17,03,24.90
2013,07,18,17,04,24.90
2013,07,18,17,05,24.80
2013,07,18,17,06,24.80
2013,07,18,17,07,24.80
2013,07,18,17,08,24.80
2013,07,18,17,09,24.80
2013,07,18,17,10,24.90
2013,07,18,17,11,24.90
2013,07,18,17,12,25.00
2013,07,18,17,13,25.10
2013,07,18,17,14,25.10
2013,07,18,17,15,25.20
2013,07,18,17,16,25.30
2013,07,18,17,17,25.40
2013,07,18,17,18,25.40
2013,07,18,17,19,25.40